Погода в Адагуме

Россия / Краснодарский край     45°06′19″N   37°42′42″E
темп.,
°C
ветер,
м/с
пор.,
м/с
влажн.,
%
обл.,
%
осадки,
мм/ч
давл.,
гПа
погр.,
м
13 июня, вс
вс1300:00+15юз328268 0.0 101325
03:00+15юз22813 0.0 101316
06:00+16ю227639 0.0 101335
09:00+22юз2257100 0.0 1013619
12:00+25зюз325370 0.1 10121747
15:00+25зюз545425 0.6 10121501
18:00+22юз44620 0.1 1012713
21:00+16ююз329140 0.1 101326
14 июня, пн
пн1400:00+15ююз229221 0.0 101221
03:00+14ю119074 0.0 101210
06:00+16вюв1184100 0.0 101227
09:00+21в3469100 0.0 1011484
12:00+25в445867 0.0 10111199
15:00+27в4447100 0.0 10102146
18:00+25св365899 0.0 1009577
21:00+19св31084100 0.0 1009198
15 июня, вт
вт1500:00+18всв239076 0.0 100969
03:00+17в1398100 4.2 100875
06:00+17всв2699100 2.6 1008290
09:00+19в3491100 4.0 1009415
12:00+24ю566216 0.9 10091082
15:00+24ююз68545 1.1 10101175
18:00+21юз57704 0.0 1010835
21:00+16ю22920 0.0 101127
16 июня, ср
ср1600:00+16ююз36934 0.0 1010155
03:00+15ююз369582 0.0 1011130
06:00+16ююз2790100 0.0 1011299
09:00+18зюз3580100 0.4 1011566
12:00+17ююз3688100 1.6 1013458
15:00+20ююз2272100 2.1 1012545
18:00+18сз118096 0.1 101253
21:00+15зсз11890 0.1 101311
17 июня, чт
чт1700:00+14в01890 0.0 101211
03:00+14ссв0190100 0.0 101211
06:00+16ссз1288100 0.1 101294
09:00+15сз1699100 7.3 1012307
12:00+16сз2698100 11.1 1013357
15:00+17сз3596100 12.8 1014365
18:00+18з3585100 0.0 1014597
21:00+15юз3694100 0.0 1015109